Location: North Evanston
(42.0634°N, 87.6976°W)
Time: 20:47:23
(UTC+00:00)

Vanguard 3 - Pass Details

Date: 14 May 2026
Orbit: 507 x 3205 km, 33.4° (Epoch: 31 May)

Event Time Altitude Azimuth Distance (km) Brightness Sun altitude
Rises 17:43:28 0° 210° (SSW) 6,240 11.9 66.7°
Reaches altitude 10° 17:47:48 10° 202° (SSW) 5,527 11.9 66.7°
Maximum altitude 18:02:59 36° 144° (SE) 4,313 11.8 66.5°
Drops below altitude 10° 18:18:59 10° 88° (E) 5,866 11.6 65.7°
Sets 18:23:42 0° 81° (E) 6,654 11.7 65.4°
